COSMOS 1275 DEB, 12661

Orbit data source: Space-Track

COSMOS 1275 DEB, 12661 is space debris in LEO originally from a launch on Thu, 04 Jun 1981 UTC launched from the Plesetsk Missile And Space Complex (PKMTR). Debris objects in space refer to the collection of defunct objects orbiting the Earth. Examples of debris include non-operational satellites, rocket bodies, and fragments generated from explosions, collisions, or faulty payload assembly.

Loading next visibility...
Identifier
12661, 1981-053R
Orbit
LEO
Country
Flag of CISCIS
Related business
Manufacturer
Unknown
Mission
Spacecraft
Bus & Motor
Unknown
Mass
Unknown
Launch date (UTC)
1981-06-04 (45 years ago)
Launch vehicle
Unknown
Launch site
Plesetsk Missile And Space Complex (PKMTR)
Object type
Payload
Rocket body
Debris
Shape & HBR
Unknown shape, 0.1 m
Radar Cross Section
Medium (>0.1 m² and <1 m²)

Expand to show TLE details & history
Last TLE update: 11 hours ago

TLE from 11 hours ago
0 COSMOS 1275 DEB
1 12661U 81053R   26150.43817858  .00000876  00000-0  89978-3 0  9996
2 12661  82.7985 278.7960 0118388 258.8853 173.3342 13.72311592227574
Epoch: 2026-05-30T10:30Z
TLE epoch observation values (Epoch: 2026-05-30T10:30:58.629Z)
Latitude
71.07394°
Longitude
-105.39494°
Altitude
1,090.242 km
Speed
7.27 km/s
True Right ascension
20h 01m 12s
True Declination
70° 58' 22"
Sunlit
Object was in daylight at epoch
Visualization orbit readout
Latitude
Unknown
Longitude
Unknown
Altitude
Unknown
Speed
Unknown
Apparent Right ascension
Unknown
Apparent Declination
Unknown
Sunlit
N/A
Visualization observer readout
Local Sidereal Time
07:02:52
Azimuth
Unknown
Elevation
Unknown
Doppler factor
Unknown
Orbital elements
Apogee altitude
1,075.653 km
Perigee altitude
901.23 km
Semi-major axis
7,366.578 km
Eccentricity
0.01184
Inclination
82.7985°
RAAN
278.796°
Arg. of periapsis
258.8853°
True anomaly
173.48939°
Mean anomaly
173.3342°
Eccentric anomaly
173.41202°
Mean motion
3.43277 °/min
Orbital period
104.87 mins
BSTAR
0.00089978
Loading maneuver chart data...
Computing Atmospheric mass density...
Loading historical data...
Loading historical data...
Loading historical data...
Loading historical data...
Loading historical data...
Loading historical data...
Loading historical data...

Documentation

Showing up to 5 results
|